| time (UTC) | temp C | wind direction | speed KPH | gust KPH | rain 1hr cm | rain 24hr cm | rain mn cm | humidity % | barometer mb |
| 20260506143108 | 17 | 147 | 0.0 | 4.8 | 0.00 | 0.00 | 0.00 | 100 | 1009.3 |
| 20260506142608 | 17 | 141 | 0.0 | 4.8 | 0.00 | 0.00 | 0.00 | 100 | 1009.3 |
| 20260506142108 | 17 | 147 | 0.0 | 4.8 | 0.00 | 0.00 | 0.00 | 100 | 1009.4 |
| 20260506141614 | 17 | 137 | 0.0 | 6.4 | 0.00 | 0.00 | 0.00 | 100 | 1009.6 |
| 20260506141609 | 17 | 171 | 1.6 | 3.2 | 0.00 | 0.00 | 0.00 | 100 | 1009.4 |
| 20260506140607 | 18 | 292 | 0.0 | 6.4 | 0.00 | 0.00 | 0.00 | 100 | 1009.5 |
| 20260506140106 | 18 | 204 | 0.0 | 3.2 | 0.00 | 0.00 | 0.00 | 100 | 1009.5 |
| 20260506135608 | 17 | 128 | 0.0 | 3.2 | 0.00 | 0.00 | 0.00 | 100 | 1009.3 |
| 20260506135106 | 17 | 200 | 0.0 | 4.8 | 0.00 | 0.00 | 0.00 | 100 | 1009.4 |
| 20260506134606 | 17 | 147 | 0.0 | 4.8 | 0.00 | 0.00 | 0.00 | 100 | 1009.6 |
| 20260506134106 | 17 | 69 | 0.0 | 4.8 | 0.00 | 0.00 | 0.00 | 100 | 1009.6 |
| 20260506133611 | 17 | 130 | 0.0 | 4.8 | 0.00 | 0.00 | 0.00 | 100 | 1009.5 |
| 20260506133606 | 17 | 286 | 0.0 | 4.8 | 0.00 | 0.00 | 0.00 | 100 | 1009.6 |
| 20260506132605 | 17 | 152 | 0.0 | 3.2 | 0.00 | 0.00 | 0.00 | 100 | 1009.4 |
| 20260506132106 | 17 | 135 | 0.0 | 3.2 | 0.00 | 0.00 | 0.00 | 100 | 1009.4 |
| 20260506131605 | 17 | 110 | 0.0 | 1.6 | 0.00 | 0.00 | 0.00 | 100 | 1009.4 |
| 20260506131104 | 16 | 166 | 0.0 | 4.8 | 0.00 | 0.00 | 0.00 | 100 | 1009.2 |
| 20260506130610 | 16 | 127 | 0.0 | 3.2 | 0.00 | 0.00 | 0.00 | 100 | 1009.2 |
| 20260506130605 | 16 | 148 | 0.0 | 4.8 | 0.00 | 0.00 | 0.00 | 100 | 1009.2 |
| 20260506125610 | 16 | 151 | 0.0 | 3.2 | 0.00 | 0.00 | 0.00 | 100 | 1009.3 |
| 20260506125605 | 16 | 142 | 0.0 | 1.6 | 0.00 | 0.00 | 0.00 | 100 | 1009.3 |
| 20260506124605 | 16 | 142 | 0.0 | 6.4 | 0.00 | 0.00 | 0.00 | 100 | 1009.4 |
| 20260506124109 | 16 | 207 | 0.0 | 4.8 | 0.00 | 0.00 | 0.00 | 100 | 1009.4 |
| 20260506124104 | 16 | 134 | 0.0 | 6.4 | 0.00 | 0.00 | 0.00 | 100 | 1009.4 |
| 20260506123104 | 16 | 259 | 1.6 | 6.4 | 0.00 | 0.00 | 0.00 | 100 | 1009.6 |
| 20260506122607 | 16 | 279 | 0.0 | 3.2 | 0.00 | 0.00 | 0.00 | 100 | 1009.8 |
| 20260506122602 | 16 | 173 | 0.0 | 6.4 | 0.00 | 0.00 | 0.00 | 100 | 1009.7 |
| 20260506121603 | 16 | 124 | 0.0 | 4.8 | 0.00 | 0.00 | 0.00 | 100 | 1009.9 |
| 20260506121104 | 16 | 137 | 0.0 | 4.8 | 0.00 | 0.00 | 0.00 | 100 | 1009.9 |
| 20260506120603 | 16 | 226 | 0.0 | 3.2 | 0.00 | 0.00 | 0.00 | 100 | 1010.0 |
| 20260506120104 | 16 | 102 | 0.0 | 3.2 | 0.00 | 0.00 | 0.00 | 100 | 1009.9 |
| 20260506115602 | 16 | 186 | 0.0 | 3.2 | 0.00 | 0.00 | 0.00 | 100 | 1009.8 |
| 20260506115102 | 15 | 148 | 0.0 | 1.6 | 0.00 | 0.00 | 0.00 | 100 | 1009.9 |
| 20260506114602 | 15 | 41 | 0.0 | 8.0 | 0.00 | 0.00 | 0.00 | 100 | 1009.7 |
| 20260506114103 | 15 | 125 | 1.6 | 8.0 | 0.00 | 0.00 | 0.00 | 100 | 1009.8 |
| 20260506113603 | 15 | 138 | 0.0 | 3.2 | 0.00 | 0.00 | 0.00 | 100 | 1009.6 |
| 20260506113101 | 15 | 235 | 1.6 | 3.2 | 0.00 | 0.00 | 0.00 | 100 | 1009.6 |
| 20260506112602 | 15 | 183 | 0.0 | 1.6 | 0.00 | 0.00 | 0.00 | 100 | 1009.7 |
| 20260506112106 | 14 | 113 | 0.0 | 1.6 | 0.00 | 0.00 | 0.00 | 100 | 1009.8 |
| 20260506112101 | 14 | 227 | 0.0 | 1.6 | 0.00 | 0.00 | 0.00 | 100 | 1009.8 |
| 20260506111106 | 13 | 203 | 0.0 | 0.0 | 0.00 | 0.00 | 0.00 | 100 | 1009.9 |
| 20260506111101 | 14 | 221 | 0.0 | 0.0 | 0.00 | 0.00 | 0.00 | 100 | 1009.9 |
| 20260506105600 | 13 | 193 | 0.0 | 0.0 | 0.00 | 0.00 | 0.00 | 100 | 1009.9 |
| 20260506105100 | -17 | 0.0 | 0.0 | 0.00 | 0.00 | 0.00 | 1009.8 | ||
| 20260506104559 | -17 | 0.0 | 0.0 | 0.00 | 0.00 | 0.00 | 1009.9 | ||
| 20260506104102 | -17 | 0.0 | 0.0 | 0.00 | 0.00 | 0.00 | 1009.7 | ||
| 20260506104058 | -17 | 0.0 | 0.0 | 0.00 | 0.00 | 0.00 | 1009.9 | ||
| 20260506103056 | -17 | 0.0 | 0.0 | 0.00 | 0.00 | 0.00 | 1009.7 | ||
| 20260506102559 | -17 | 0.0 | 0.0 | 0.00 | 0.00 | 0.00 | 1009.8 | ||
| 20260506102555 | -17 | 0.0 | 0.0 | 0.00 | 0.00 | 0.00 | 1009.7 | ||
| 20260506101558 | -17 | 0.0 | 0.0 | 0.00 | 0.00 | 0.00 | 1009.8 | ||
| 20260506101554 | -17 | 0.0 | 0.0 | 0.00 | 0.00 | 0.00 | 1009.7 | ||
| 20260506100552 | -17 | 0.0 | 0.0 | 0.00 | 0.00 | 0.00 | 1009.7 | ||
| 20260506100051 | -17 | 0.0 | 0.0 | 0.00 | 0.00 | 0.00 | 1009.7 | ||
| 20260506095550 | -17 | 0.0 | 0.0 | 0.00 | 0.00 | 0.00 | 1009.6 | ||
| 20260506095049 | -17 | 0.0 | 0.0 | 0.00 | 0.00 | 0.00 | 1009.6 | ||
| 20260506094552 | -17 | 0.0 | 0.0 | 0.00 | 0.00 | 0.00 | 1009.6 | ||
| 20260506094548 | -17 | 0.0 | 0.0 | 0.00 | 0.00 | 0.00 | 1009.5 | ||
| 20260506093546 | -17 | 0.0 | 0.0 | 0.00 | 0.00 | 0.00 | 1009.6 | ||
| 20260506093045 | -17 | 0.0 | 0.0 | 0.00 | 0.00 | 0.00 | 1009.6 | ||
| 20260506092544 | -17 | 0.0 | 0.0 | 0.00 | 0.00 | 0.00 | 1009.6 | ||
| 20260506092043 | -17 | 0.0 | 0.0 | 0.00 | 0.00 | 0.00 | 1009.6 | ||
| 20260506091542 | -17 | 0.0 | 0.0 | 0.00 | 0.00 | 0.00 | 1009.6 | ||
| 20260506091041 | -17 | 0.0 | 0.0 | 0.00 | 0.00 | 0.00 | 1009.7 | ||
| 20260506090540 | -17 | 0.0 | 0.0 | 0.00 | 0.00 | 0.00 | 1009.8 | ||
| 20260506090039 | -17 | 0.0 | 0.0 | 0.00 | 0.00 | 0.00 | 1009.8 | ||
| 20260506085538 | -17 | 0.0 | 0.0 | 0.00 | 0.00 | 0.00 | 1009.8 | ||
| 20260506085037 | -17 | 0.0 | 0.0 | 0.00 | 0.00 | 0.00 | 1009.8 | ||
| 20260506084540 | -17 | 0.0 | 0.0 | 0.00 | 0.00 | 0.00 | 1009.8 | ||
| 20260506084536 | -17 | 0.0 | 0.0 | 0.00 | 0.00 | 0.00 | 1009.8 | ||
| 20260506083534 | -17 | 0.0 | 0.0 | 0.00 | 0.00 | 0.00 | 1009.9 | ||
| 20260506083033 | -17 | 0.0 | 0.0 | 0.00 | 0.00 | 0.00 | 1009.9 | ||
| 20260506082532 | -17 | 0.0 | 0.0 | 0.00 | 0.00 | 0.00 | 1010.0 | ||
| 20260506082031 | -17 | 0.0 | 0.0 | 0.00 | 0.00 | 0.00 | 1010.1 | ||
| 20260506081530 | -17 | 0.0 | 0.0 | 0.00 | 0.00 | 0.00 | 1010.1 | ||
| 20260506081033 | -17 | 0.0 | 0.0 | 0.00 | 0.00 | 0.00 | 1010.1 | ||
| 20260506081029 | -17 | 0.0 | 0.0 | 0.00 | 0.00 | 0.00 | 1010.0 | ||
| 20260506073022 | -17 | 0.0 | 0.0 | 0.00 | 0.00 | 0.00 | 1010.1 | ||
| 20260506072521 | -17 | 0.0 | 0.0 | 0.00 | 0.00 | 0.00 | 1010.1 | ||
| 20260506072024 | -17 | 0.0 | 0.0 | 0.00 | 0.00 | 0.00 | 1010.2 | ||
| 20260506072020 | -17 | 0.0 | 0.0 | 0.00 | 0.00 | 0.00 | 1010.2 | ||
| 20260506071017 | -17 | 0.0 | 0.0 | 0.00 | 0.00 | 0.00 | 1010.2 | ||
| 20260506070623 | -17 | 0.0 | 0.0 | 0.00 | 0.00 | 0.00 | 1010.2 | ||
| 20260506070520 | -17 | 0.0 | 0.0 | 0.00 | 0.00 | 0.00 | 1010.1 | ||
| 20260506070516 | -17 | 0.0 | 0.0 | 0.00 | 0.00 | 0.00 | 1010.1 | ||
| 20260506062513 | -17 | 0.0 | 0.0 | 0.00 | 0.00 | 0.00 | 1010.1 | ||
| 20260506062509 | -17 | 0.0 | 0.0 | 0.00 | 0.00 | 0.00 | 1010.1 | ||
| 20260506061512 | -17 | 0.0 | 0.0 | 0.00 | 0.00 | 0.00 | 1010.1 | ||
| 20260506061508 | -17 | 0.0 | 0.0 | 0.00 | 0.00 | 0.00 | 1010.1 | ||
| 20260506060506 | -17 | 0.0 | 0.0 | 0.00 | 0.00 | 0.00 | 1010.1 | ||
| 20260506051001 | 15 | 166 | 0.0 | 1.6 | 0.00 | 0.00 | 0.00 | 100 | 1010.3 |
| 20260506050502 | 15 | 185 | 0.0 | 1.6 | 0.00 | 0.00 | 0.00 | 100 | 1010.3 |
| 20260506045000 | 16 | 134 | 0.0 | 3.2 | 0.00 | 0.00 | 0.00 | 100 | 1010.5 |
| 20260506044500 | 16 | 134 | 0.0 | 4.8 | 0.00 | 0.00 | 0.00 | 100 | 1010.5 |
| 20260506044000 | 16 | 148 | 0.0 | 4.8 | 0.00 | 0.00 | 0.00 | 100 | 1010.4 |
| 20260506043501 | 16 | 171 | 0.0 | 1.6 | 0.00 | 0.00 | 0.00 | 100 | 1010.5 |
| 20260506042959 | 16 | 197 | 0.0 | 4.8 | 0.00 | 0.00 | 0.00 | 100 | 1010.3 |
| 20260506042504 | 16 | 144 | 0.0 | 4.8 | 0.00 | 0.00 | 0.00 | 100 | 1010.4 |
| 20260506042500 | 16 | 123 | 0.0 | 4.8 | 0.00 | 0.00 | 0.00 | 100 | 1010.4 |
| 20260506041459 | 16 | 87 | 0.0 | 6.4 | 0.00 | 0.00 | 0.00 | 100 | 1010.3 |
| 20260506040959 | 16 | 137 | 1.6 | 6.4 | 0.00 | 0.00 | 0.00 | 100 | 1010.4 |
| 20260506040458 | 16 | 220 | 0.0 | 4.8 | 0.00 | 0.00 | 0.00 | 100 | 1010.4 |
| 20260506035959 | 16 | 213 | 0.0 | 4.8 | 0.00 | 0.00 | 0.00 | 100 | 1010.4 |
| 20260506035458 | 16 | 157 | 0.0 | 3.2 | 0.00 | 0.00 | 0.00 | 100 | 1010.4 |
| 20260506034958 | 16 | 299 | 0.0 | 3.2 | 0.00 | 0.00 | 0.00 | 100 | 1010.4 |
| 20260506034458 | 16 | 120 | 0.0 | 1.6 | 0.00 | 0.00 | 0.00 | 100 | 1010.3 |
| 20260506033957 | 16 | 257 | 0.0 | 1.6 | 0.00 | 0.00 | 0.00 | 2 | 1010.4 |
| 20260506033458 | 16 | 238 | 0.0 | 4.8 | 0.00 | 0.00 | 0.00 | 3 | 1010.3 |
| 20260506032957 | 16 | 227 | 0.0 | 4.8 | 0.00 | 0.00 | 0.00 | 4 | 1010.2 |
| 20260506032458 | 16 | 159 | 0.0 | 1.6 | 0.00 | 0.00 | 0.00 | 4 | 1010.3 |
| 20260506031957 | 16 | 144 | 0.0 | 1.6 | 0.00 | 0.00 | 0.00 | 6 | 1010.3 |
| 20260506031458 | 16 | 262 | 0.0 | 3.2 | 0.00 | 0.00 | 0.00 | 7 | 1010.3 |
| 20260506030957 | 16 | 131 | 0.0 | 4.8 | 0.00 | 0.00 | 0.00 | 8 | 1010.3 |
| 20260506030456 | 16 | 292 | 0.0 | 4.8 | 0.00 | 0.00 | 0.00 | 9 | 1010.3 |
| 20260506025956 | 16 | 223 | 0.0 | 1.6 | 0.00 | 0.00 | 0.00 | 12 | 1010.3 |
| 20260506025456 | 16 | 107 | 0.0 | 4.8 | 0.00 | 0.00 | 0.00 | 14 | 1010.3 |
| 20260506024956 | 16 | 111 | 0.0 | 4.8 | 0.00 | 0.00 | 0.00 | 15 | 1010.4 |
| 20260506024457 | 17 | 121 | 1.6 | 3.2 | 0.00 | 0.00 | 0.00 | 15 | 1010.4 |
| 20260506024002 | 17 | 151 | 0.0 | 3.2 | 0.00 | 0.00 | 0.00 | 20 | 1010.4 |
| 20260506023957 | 17 | 90 | 0.0 | 1.6 | 0.00 | 0.00 | 0.00 | 18 | 1010.4 |
| 20260506022955 | 17 | 230 | 0.0 | 3.2 | 0.00 | 0.00 | 0.00 | 22 | 1010.4 |
| 20260506022455 | 17 | 106 | 0.0 | 1.6 | 0.00 | 0.00 | 0.00 | 24 | 1010.3 |
| 20260506021955 | 17 | 333 | 0.0 | 3.2 | 0.00 | 0.00 | 0.00 | 26 | 1010.4 |
| 20260506021456 | 17 | 114 | 0.0 | 4.8 | 0.00 | 0.00 | 0.00 | 27 | 1010.3 |
| 20260506020955 | 17 | 125 | 0.0 | 4.8 | 0.00 | 0.00 | 0.00 | 28 | 1010.3 |
| 20260506020456 | 17 | 123 | 0.0 | 6.4 | 0.00 | 0.00 | 0.00 | 30 | 1010.3 |
| 20260506015955 | 17 | 168 | 0.0 | 8.0 | 0.00 | 0.00 | 0.00 | 31 | 1010.2 |
| 20260506015454 | 17 | 111 | 0.0 | 8.0 | 0.00 | 0.00 | 0.00 | 32 | 1010.1 |
| 20260506014955 | 17 | 135 | 0.0 | 4.8 | 0.00 | 0.00 | 0.00 | 33 | 1010.1 |
| 20260506014454 | 17 | 100 | 0.0 | 4.8 | 0.00 | 0.00 | 0.00 | 33 | 1010.0 |
| 20260506013954 | 17 | 321 | 0.0 | 3.2 | 0.00 | 0.00 | 0.00 | 34 | 1009.9 |
| 20260506013453 | 17 | 134 | 0.0 | 4.8 | 0.00 | 0.00 | 0.00 | 35 | 1009.9 |
| 20260506013000 | 17 | 148 | 1.6 | 4.8 | 0.00 | 0.00 | 0.00 | 32 | 1009.8 |
| 20260506012954 | 17 | 142 | 0.0 | 4.8 | 0.00 | 0.00 | 0.00 | 34 | 1009.8 |
| 20260506011953 | 17 | 118 | 0.0 | 0.0 | 0.00 | 0.00 | 0.00 | 34 | 1009.7 |
| 20260506011458 | 17 | 161 | 0.0 | 0.0 | 0.00 | 0.00 | 0.00 | 36 | 1009.6 |
| 20260506011453 | 17 | 161 | 0.0 | 0.0 | 0.00 | 0.00 | 0.00 | 34 | 1009.7 |
| 20260506010458 | 17 | 166 | 0.0 | 1.6 | 0.00 | 0.00 | 0.00 | 40 | 1009.4 |
| 20260506010453 | 17 | 166 | 0.0 | 1.6 | 0.00 | 0.00 | 0.00 | 39 | 1009.5 |
| 20260506010113 | 18 | 134 | 0.0 | 1.6 | 0.00 | 0.00 | 0.00 | 42 | 1009.3 |
| 20260506004952 | 18 | 189 | 0.0 | 1.6 | 0.00 | 0.00 | 0.00 | 43 | 1009.3 |
| 20260506004451 | 18 | 172 | 0.0 | 3.2 | 0.00 | 0.00 | 0.00 | 44 | 1009.2 |
| 20260506003957 | 18 | 234 | 0.0 | 4.8 | 0.00 | 0.00 | 0.00 | 46 | 1009.1 |
| 20260506003952 | 18 | 224 | 0.0 | 3.2 | 0.00 | 0.00 | 0.00 | 45 | 1009.2 |
| 20260506002957 | 18 | 289 | 0.0 | 3.2 | 0.00 | 0.00 | 0.00 | 48 | 1009.0 |
| 20260506002952 | 18 | 171 | 0.0 | 4.8 | 0.00 | 0.00 | 0.00 | 47 | 1009.1 |
| 20260506001952 | 18 | 100 | 0.0 | 3.2 | 0.00 | 0.00 | 0.00 | 48 | 1009.0 |
| 20260506001451 | 18 | 123 | 0.0 | 3.2 | 0.00 | 0.00 | 0.00 | 49 | 1009.0 |
| 20260506000952 | 18 | 133 | 0.0 | 4.8 | 0.00 | 0.00 | 0.00 | 50 | 1008.8 |
| 20260506000450 | 18 | 354 | 0.0 | 4.8 | 0.00 | 0.00 | 0.00 | 50 | 1008.8 |
| 20260505235951 | 18 | 329 | 0.0 | 4.8 | 0.00 | 0.00 | 0.00 | 51 | 1008.8 |
| 20260505235450 | 18 | 158 | 0.0 | 4.8 | 0.00 | 0.00 | 0.00 | 51 | 1008.8 |
| 20260505234954 | 18 | 96 | 0.0 | 9.7 | 0.00 | 0.00 | 0.00 | 52 | 1008.5 |
| 20260505234950 | 18 | 292 | 0.0 | 9.7 | 0.00 | 0.00 | 0.00 | 52 | 1008.7 |
| 20260505233949 | 19 | 42 | 0.0 | 9.7 | 0.00 | 0.00 | 0.00 | 53 | 1008.4 |
| 20260505233450 | 19 | 155 | 1.6 | 4.8 | 0.00 | 0.00 | 0.00 | 54 | 1008.3 |
| 20260505232950 | 19 | 118 | 1.6 | 4.8 | 0.00 | 0.00 | 0.00 | 54 | 1008.4 |
| 20260505232449 | 19 | 258 | 0.0 | 4.8 | 0.00 | 0.00 | 0.00 | 54 | 1008.4 |
| 20260505231949 | 19 | 138 | 1.6 | 4.8 | 0.00 | 0.00 | 0.00 | 54 | 1008.3 |
| 20260505231449 | 19 | 8 | 1.6 | 4.8 | 0.00 | 0.00 | 0.00 | 54 | 1008.1 |
| 20260505230954 | 19 | 133 | 0.0 | 11.3 | 0.00 | 0.00 | 0.00 | 54 | 1008.1 |
| 20260505230950 | 19 | 135 | 1.6 | 11.3 | 0.00 | 0.00 | 0.00 | 54 | 1008.2 |
| 20260505225948 | 20 | 71 | 0.0 | 6.4 | 0.00 | 0.00 | 0.00 | 54 | 1008.1 |
| 20260505225454 | 20 | 66 | 0.0 | 4.8 | 0.00 | 0.00 | 0.00 | 54 | 1007.9 |
| 20260505225448 | 20 | 314 | 1.6 | 4.8 | 0.00 | 0.00 | 0.00 | 54 | 1008.0 |
| 20260505224447 | 20 | 118 | 1.6 | 4.8 | 0.00 | 0.00 | 0.00 | 54 | 1007.7 |
| 20260505223947 | 20 | 103 | 0.0 | 6.4 | 0.00 | 0.00 | 0.00 | 54 | 1007.7 |
| 20260505223448 | 20 | 135 | 1.6 | 6.4 | 0.00 | 0.00 | 0.00 | 55 | 1007.9 |
| 20260505222947 | 20 | 152 | 1.6 | 9.7 | 0.00 | 0.00 | 0.00 | 55 | 1007.9 |
| 20260505222447 | 20 | 125 | 1.6 | 9.7 | 0.00 | 0.00 | 0.00 | 55 | 1008.0 |
| 20260505221946 | 20 | 281 | 0.0 | 4.8 | 0.00 | 0.00 | 0.00 | 54 | 1008.0 |
| 20260505221447 | 20 | 216 | 1.6 | 4.8 | 0.00 | 0.00 | 0.00 | 54 | 1008.0 |
| 20260505220951 | 20 | 176 | 1.6 | 6.4 | 0.00 | 0.00 | 0.00 | 54 | 1008.0 |
| 20260505220946 | 20 | 206 | 1.6 | 6.4 | 0.00 | 0.00 | 0.00 | 55 | 1008.1 |
| 20260505215946 | 20 | 107 | 1.6 | 9.7 | 0.00 | 0.00 | 0.00 | 54 | 1008.0 |
| 20260505215451 | 20 | 127 | 1.6 | 8.0 | 0.00 | 0.00 | 0.00 | 55 | 1007.9 |
| 20260505215446 | 20 | 72 | 1.6 | 9.7 | 0.00 | 0.00 | 0.00 | 54 | 1007.9 |
| 20260505215108 | 20 | 34 | 1.6 | 8.0 | 0.00 | 0.00 | 0.00 | 55 | 1007.8 |
| 20260505213945 | 20 | 130 | 1.6 | 8.0 | 0.00 | 0.00 | 0.00 | 54 | 1007.8 |
| 20260505213445 | 21 | 281 | 1.6 | 6.4 | 0.00 | 0.00 | 0.00 | 55 | 1007.8 |
| 20260505212944 | 21 | 341 | 1.6 | 8.0 | 0.00 | 0.00 | 0.00 | 55 | 1007.9 |
| 20260505212445 | 21 | 104 | 1.6 | 8.0 | 0.00 | 0.00 | 0.00 | 55 | 1007.9 |
| 20260505211945 | 21 | 164 | 1.6 | 9.7 | 0.00 | 0.00 | 0.00 | 55 | 1007.8 |
| 20260505211446 | 21 | 61 | 1.6 | 9.7 | 0.00 | 0.00 | 0.00 | 55 | 1007.7 |
| 20260505210944 | 21 | 161 | 0.0 | 4.8 | 0.00 | 0.00 | 0.00 | 55 | 1007.5 |
| 20260505210444 | 21 | 103 | 0.0 | 3.2 | 0.00 | 0.00 | 0.00 | 55 | 1007.6 |
| 20260505205944 | 21 | 293 | 0.0 | 3.2 | 0.00 | 0.00 | 0.00 | 54 | 1007.6 |
| 20260505205443 | 21 | 147 | 0.0 | 3.2 | 0.00 | 0.00 | 0.00 | 55 | 1007.7 |
| 20260505204944 | 21 | 147 | 0.0 | 8.0 | 0.00 | 0.00 | 0.00 | 55 | 1007.8 |
| 20260505204443 | 21 | 180 | 1.6 | 8.0 | 0.00 | 0.00 | 0.00 | 55 | 1007.8 |
| 20260505203945 | 22 | 14 | 3.2 | 8.0 | 0.00 | 0.00 | 0.00 | 55 | 1007.6 |
| 20260505203448 | 22 | 106 | 0.0 | 14.5 | 0.00 | 0.00 | 0.00 | 55 | 1007.7 |
| 20260505203443 | 22 | 111 | 0.0 | 6.4 | 0.00 | 0.00 | 0.00 | 55 | 1007.6 |
| 20260505203103 | 22 | 49 | 3.2 | 14.5 | 0.00 | 0.00 | 0.00 | 55 | 1007.9 |
| 20260505201943 | 22 | 110 | 0.0 | 3.2 | 0.00 | 0.00 | 0.00 | 55 | 1007.9 |
| 20260505201448 | 22 | 75 | 0.0 | 4.8 | 0.00 | 0.00 | 0.00 | 55 | 1007.9 |
| 20260505201443 | 22 | 278 | 0.0 | 4.8 | 0.00 | 0.00 | 0.00 | 55 | 1008.0 |
| 20260505200449 | 22 | 275 | 0.0 | 9.7 | 0.00 | 0.00 | 0.00 | 55 | 1008.1 |
| 20260505200443 | 22 | 171 | 0.0 | 6.4 | 0.00 | 0.00 | 0.00 | 55 | 1008.0 |
| 20260505195442 | 22 | 329 | 3.2 | 9.7 | 0.00 | 0.00 | 0.00 | 55 | 1008.1 |
| 20260505194941 | 22 | 227 | 1.6 | 9.7 | 0.00 | 0.00 | 0.00 | 54 | 1008.2 |
| 20260505194446 | 23 | 182 | 0.0 | 8.0 | 0.00 | 0.00 | 0.00 | 54 | 1008.4 |
| 20260505194441 | 23 | 202 | 1.6 | 4.8 | 0.00 | 0.00 | 0.00 | 54 | 1008.2 |
| 20260505193441 | 23 | 89 | 1.6 | 8.0 | 0.00 | 0.00 | 0.00 | 55 | 1008.3 |
| 20260505192948 | 23 | 87 | 1.6 | 11.3 | 0.00 | 0.00 | 0.00 | 54 | 1008.3 |
| 20260505192942 | 23 | 334 | 0.0 | 8.0 | 0.00 | 0.00 | 0.00 | 54 | 1008.3 |
| 20260505192600 | 23 | 254 | 3.2 | 11.3 | 0.00 | 0.00 | 0.00 | 54 | 1008.4 |
| 20260505191440 | 23 | 151 | 1.6 | 11.3 | 0.00 | 0.00 | 0.00 | 54 | 1008.5 |
| 20260505190939 | 23 | 110 | 1.6 | 11.3 | 0.00 | 0.00 | 0.00 | 54 | 1008.5 |
| 20260505190441 | 23 | 149 | 3.2 | 9.7 | 0.00 | 0.00 | 0.00 | 54 | 1008.7 |
| 20260505185940 | 23 | 231 | 3.2 | 8.0 | 0.00 | 0.00 | 0.00 | 54 | 1008.8 |
| 20260505185446 | 23 | 224 | 1.6 | 9.7 | 0.00 | 0.00 | 0.00 | 54 | 1008.8 |
| 20260505185441 | 23 | 268 | 3.2 | 8.0 | 0.00 | 0.00 | 0.00 | 54 | 1008.9 |
| 20260505184440 | 23 | 125 | 1.6 | 9.7 | 0.00 | 0.00 | 0.00 | 53 | 1008.9 |
| 20260505183944 | 23 | 145 | 3.2 | 9.7 | 0.00 | 0.00 | 0.00 | 53 | 1009.0 |
| 20260505183939 | 23 | 147 | 0.0 | 9.7 | 0.00 | 0.00 | 0.00 | 54 | 1009.0 |
| 20260505182939 | 24 | 94 | 1.6 | 9.7 | 0.00 | 0.00 | 0.00 | 53 | 1009.0 |
| 20260505182444 | 24 | 134 | 0.0 | 8.0 | 0.00 | 0.00 | 0.00 | 54 | 1008.9 |
| 20260505182438 | 24 | 109 | 3.2 | 9.7 | 0.00 | 0.00 | 0.00 | 53 | 1008.8 |
| 20260505181443 | 25 | 73 | 1.6 | 8.0 | 0.00 | 0.00 | 0.00 | 52 | 1009.0 |
| 20260505181438 | 24 | 121 | 3.2 | 8.0 | 0.00 | 0.00 | 0.00 | 52 | 1009.0 |
| 20260505180443 | 24 | 213 | 1.6 | 6.4 | 0.00 | 0.00 | 0.00 | 54 | 1009.0 |
| 20260505180438 | 24 | 293 | 0.0 | 8.0 | 0.00 | 0.00 | 0.00 | 53 | 1008.9 |
| 20260505175438 | 24 | 295 | 1.6 | 8.0 | 0.00 | 0.00 | 0.00 | 52 | 1009.1 |
| 20260505174938 | 24 | 73 | 1.6 | 8.0 | 0.00 | 0.00 | 0.00 | 52 | 1009.1 |
| 20260505174438 | 24 | 130 | 3.2 | 9.7 | 0.00 | 0.00 | 0.00 | 52 | 1009.1 |
| 20260505173937 | 25 | 133 | 3.2 | 11.3 | 0.00 | 0.00 | 0.00 | 52 | 1009.1 |
| 20260505173437 | 25 | 118 | 1.6 | 11.3 | 0.00 | 0.00 | 0.00 | 51 | 1009.0 |
| 20260505172937 | 25 | 202 | 0.0 | 6.4 | 0.00 | 0.00 | 0.00 | 52 | 1009.1 |
| 20260505172436 | 25 | 37 | 0.0 | 8.0 | 0.00 | 0.00 | 0.00 | 51 | 1009.1 |
| 20260505171937 | 25 | 120 | 3.2 | 8.0 | 0.00 | 0.00 | 0.00 | 51 | 1009.1 |
| 20260505171436 | 24 | 186 | 0.0 | 6.4 | 0.00 | 0.00 | 0.00 | 54 | 1009.1 |
| 20260505170937 | 24 | 134 | 1.6 | 6.4 | 0.00 | 0.00 | 0.00 | 51 | 1009.2 |
| 20260505170435 | 24 | 147 | 1.6 | 4.8 | 0.00 | 0.00 | 0.00 | 53 | 1009.4 |
| 20260505165936 | 24 | 107 | 1.6 | 4.8 | 0.00 | 0.00 | 0.00 | 53 | 1009.4 |
| 20260505165436 | 24 | 104 | 1.6 | 8.0 | 0.00 | 0.00 | 0.00 | 54 | 1009.5 |
| 20260505164934 | 24 | 93 | 1.6 | 8.0 | 0.00 | 0.00 | 0.00 | 53 | 1009.6 |
| 20260505164436 | 24 | 63 | 1.6 | 8.0 | 0.00 | 0.00 | 0.00 | 53 | 1009.6 |
| 20260505163935 | 23 | 117 | 1.6 | 8.0 | 0.00 | 0.00 | 0.00 | 52 | 1009.5 |
| 20260505163436 | 23 | 94 | 1.6 | 6.4 | 0.00 | 0.00 | 0.00 | 54 | 1009.5 |
| 20260505162934 | 23 | 200 | 1.6 | 6.4 | 0.00 | 0.00 | 0.00 | 53 | 1009.5 |
| 20260505162441 | 23 | 231 | 3.2 | 6.4 | 0.00 | 0.00 | 0.00 | 52 | 1009.8 |
| 20260505162436 | 23 | 137 | 1.6 | 6.4 | 0.00 | 0.00 | 0.00 | 53 | 1009.7 |
| 20260505162053 | 23 | 124 | 3.2 | 6.4 | 0.00 | 0.00 | 0.00 | 52 | 1010.0 |
| 20260505161556 | 23 | 258 | 0.0 | 6.4 | 0.00 | 0.00 | 0.00 | 54 | 1010.0 |
| 20260505160434 | 23 | 161 | 1.6 | 9.7 | 0.00 | 0.00 | 0.00 | 53 | 1010.0 |
| 20260505152934 | 22 | 203 | 1.6 | 11.3 | 0.00 | 0.00 | 0.00 | 54 | 1010.2 |
| 20260505152434 | 22 | 93 | 1.6 | 11.3 | 0.00 | 0.00 | 0.00 | 54 | 1010.4 |
| 20260505151932 | 22 | 144 | 1.6 | 9.7 | 0.00 | 0.00 | 0.00 | 54 | 1010.5 |
| 20260505151432 | 21 | 130 | 1.6 | 6.4 | 0.00 | 0.00 | 0.00 | 54 | 1010.6 |
| 20260505150932 | 21 | 123 | 0.0 | 6.4 | 0.00 | 0.00 | 0.00 | 54 | 1010.6 |
| 20260505150432 | 21 | 281 | 1.6 | 4.8 | 0.00 | 0.00 | 0.00 | 53 | 1010.6 |